K7KLA Weather Reports


time (UTC)temp
F
wind
direction
speed
knots
gust
knots
rain 1hr
in
rain 24hr
in
rain mn
in
humidity
%
barometer
mb
20260505153238 68 180 7.0 10.4 0.00 0.00 0.00 63 1008.4
20260505152738 68 180 7.0 10.4 0.00 0.00 0.00 64 1008.4
20260505152233 68 180 7.0 10.4 0.00 0.00 0.00 65 1008.3
20260505151733 68 257 6.1 10.4 0.00 0.00 0.00 66 1008.3
20260505151233 67 244 5.2 9.6 0.00 0.00 0.00 67 1008.2
20260505151001 67 250 5.2 9.6 0.00 0.00 0.00 68 1008.2
20260505150231 67 258 4.3 8.7 0.00 0.00 0.00 68 1008.0
20260505140209 62 180 0.9 1.7 0.00 0.00 0.00 74 1007.4
20260505130208 56 180 3.5 7.8 0.00 0.00 0.00 82 1006.8
20260505124705 53 180 0.0 0.9 0.00 0.00 0.00 82 1006.7
20260505124204 54 180 0.0 0.9 0.00 0.00 0.00 83 1006.6
20260505123703 53 180 0.9 2.6 0.00 0.00 0.00 82 1006.6
20260505123203 54 180 1.7 3.5 0.00 0.00 0.00 81 1006.5
20260505122704 54 180 0.9 3.5 0.00 0.00 0.00 80 1006.5
20260505122203 54 180 1.7 5.2 0.00 0.00 0.00 80 1006.5
20260505121158 54 180 0.9 3.5 0.00 0.00 0.00 83 1006.3
20260505120659 53 180 0.0 1.7 0.00 0.00 0.00 82 1006.3
20260505120152 54 180 0.0 2.6 0.00 0.00 0.00 82 1006.3
20260505115654 53 180 0.0 2.6 0.00 0.00 0.00 83 1006.3
20260505115154 53 180 0.0 0.9 0.00 0.00 0.00 82 1006.2
20260505114411 54 180 0.9 1.7 0.00 0.00 0.00 82 1006.2
20260505113650 54 180 0.9 1.7 0.00 0.00 0.00 82 1006.1
20260505113144 54 180 0.9 2.6 0.00 0.00 0.00 82 1006.1
20260505112642 54 180 0.9 2.6 0.00 0.00 0.00 82 1006.0
20260505112143 54 180 0.9 2.6 0.00 0.00 0.00 81 1006.0
20260505111642 54 180 0.0 1.7 0.00 0.00 0.00 81 1006.0
20260505111140 54 180 0.9 1.7 0.00 0.00 0.00 81 1005.9
20260505110642 54 180 0.9 1.7 0.00 0.00 0.00 81 1005.8
20260505110140 54 180 0.9 1.7 0.00 0.00 0.00 81 1005.8
20260505102137 55 180 0.9 3.5 0.00 0.00 0.00 78 1005.4
20260505101634 55 180 0.9 3.5 0.00 0.00 0.00 78 1005.4
20260505101133 54 180 0.9 1.7 0.00 0.00 0.00 78 1005.3
20260505100634 54 180 0.9 1.7 0.00 0.00 0.00 78 1005.2
20260505100132 55 180 0.9 2.6 0.00 0.00 0.00 77 1005.3
20260505095632 54 180 0.9 2.6 0.00 0.00 0.00 77 1005.2
20260505095131 54 180 0.9 2.6 0.00 0.00 0.00 77 1005.2
20260505094629 54 180 0.9 2.6 0.00 0.00 0.00 77 1005.2
20260505094128 55 180 0.9 1.7 0.00 0.00 0.00 77 1005.2
20260505093630 54 180 0.9 1.7 0.00 0.00 0.00 77 1005.1
20260505093346 54 180 0.9 1.7 0.00 0.00 0.00 77 1005.1
20260505092854 54 180 0.9 2.6 0.00 0.00 0.00 77 1005.1
20260505092128 55 180 0.9 2.6 0.00 0.00 0.00 77 1005.0
20260505091622 54 180 0.9 1.7 0.00 0.00 0.00 77 1005.0
20260505091121 54 180 0.0 0.9 0.00 0.00 0.00 77 1004.9
20260505090621 54 180 0.0 0.9 0.00 0.00 0.00 77 1004.9
20260505090120 55 180 0.0 0.9 0.00 0.00 0.00 76 1004.9
20260505085619 55 180 0.0 2.6 0.00 0.00 0.00 76 1004.8
20260505085342 55 180 0.9 2.6 0.00 0.00 0.00 76 1004.9
20260505084617 55 180 0.9 2.6 0.00 0.00 0.00 75 1004.9
20260505084118 55 180 0.9 2.6 0.00 0.00 0.00 75 1004.8
20260505083618 55 180 0.9 1.7 0.00 0.00 0.00 75 1004.9
20260505083116 56 180 0.9 1.7 0.00 0.00 0.00 74 1004.8
20260505082842 56 180 0.9 1.7 0.00 0.00 0.00 72 1004.8
20260505082115 57 180 0.9 0.9 0.00 0.00 0.00 70 1004.9
20260505081614 57 180 0.9 1.7 0.00 0.00 0.00 69 1004.8
20260505081113 58 180 0.9 3.5 0.00 0.00 0.00 68 1004.8
20260505080612 58 180 2.6 3.5 0.00 0.00 0.00 68 1004.7
20260505080111 59 180 2.6 5.2 0.00 0.00 0.00 66 1004.7
20260505075614 59 180 0.9 5.2 0.00 0.00 0.00 64 1004.5
20260505075337 60 180 0.0 0.9 0.00 0.00 0.00 62 1004.3
20260505074609 60 180 0.9 1.7 0.00 0.00 0.00 62 1004.2
20260505074108 60 180 0.9 1.7 0.00 0.00 0.00 60 1004.1
20260505073608 60 180 0.0 0.9 0.00 0.00 0.00 61 1004.1
20260505073107 61 180 0.0 0.9 0.00 0.00 0.00 61 1004.0
20260505072833 61 180 0.0 0.9 0.00 0.00 0.00 61 1004.0
20260505072110 61 180 0.0 1.7 0.00 0.00 0.00 61 1003.9
20260505071608 60 180 0.0 1.7 0.00 0.00 0.00 61 1003.8
20260505071332 60 180 0.0 1.7 0.00 0.00 0.00 62 1003.8
20260505070605 60 180 0.0 2.6 0.00 0.00 0.00 63 1003.8
20260505070104 61 180 0.0 2.6 0.00 0.00 0.00 62 1003.8
20260505065830 61 180 0.0 0.9 0.00 0.00 0.00 62 1003.7
20260505065103 61 180 0.0 2.6 0.00 0.00 0.00 62 1003.7
20260505064602 61 180 0.0 2.6 0.00 0.00 0.00 63 1003.6
20260505064104 61 180 0.0 2.6 0.00 0.00 0.00 63 1003.6
20260505063600 60 180 0.0 2.6 0.00 0.00 0.00 63 1003.6
20260505063322 60 180 0.0 2.6 0.00 0.00 0.00 64 1003.6
20260505062600 60 180 0.9 3.5 0.00 0.00 0.00 64 1003.7
20260505062058 60 180 0.9 3.5 0.00 0.00 0.00 65 1003.6
20260505061822 60 180 0.9 1.7 0.00 0.00 0.00 64 1003.6
20260505061058 60 180 0.9 2.6 0.00 0.00 0.00 64 1003.6
20260505060557 61 180 0.9 7.0 0.00 0.00 0.00 65 1003.5
20260505060055 61 180 1.7 7.0 0.00 0.00 0.00 64 1003.5
20260505055557 60 180 1.7 4.3 0.00 0.00 0.00 64 1003.5
20260505055055 60 180 0.9 4.3 0.00 0.00 0.00 65 1003.5
20260505054554 60 180 0.0 0.9 0.00 0.00 0.00 66 1003.5
20260505054054 60 180 0.0 0.9 0.00 0.00 0.00 65 1003.5
20260505053552 61 180 0.0 0.9 0.00 0.00 0.00 66 1003.5
20260505053052 61 180 0.0 0.9 0.00 0.00 0.00 66 1003.5
20260505052552 61 180 0.0 0.0 0.00 0.00 0.00 65 1003.5
20260505052050 61 180 0.0 1.7 0.00 0.00 0.00 65 1003.5
20260505051813 61 180 0.0 1.7 0.00 0.00 0.00 66 1003.6
20260505051051 61 180 0.0 1.7 0.00 0.00 0.00 66 1003.6
20260505050818 61 180 0.0 0.9 0.00 0.00 0.00 66 1003.5
20260505041541 63 180 0.0 2.6 0.00 0.00 0.00 64 1003.6
20260505041035 63 180 0.0 2.6 0.00 0.00 0.00 64 1003.5
20260505040537 63 180 0.0 1.7 0.00 0.00 0.00 63 1003.5
20260505040040 63 180 0.9 2.6 0.00 0.00 0.00 64 1003.4
20260505035530 63 180 0.9 2.6 0.00 0.00 0.00 64 1003.4
20260505035030 63 180 0.9 2.6 0.00 0.00 0.00 64 1003.4
20260505034531 63 180 0.9 2.6 0.00 0.00 0.00 64 1003.3
20260505034029 63 180 0.9 2.6 0.00 0.00 0.00 65 1003.3
20260505033526 63 180 0.0 1.7 0.00 0.00 0.00 65 1003.2
20260505033252 64 180 0.0 3.5 0.00 0.00 0.00 65 1003.2
20260505032525 64 180 0.0 3.5 0.00 0.00 0.00 65 1003.0
20260505032026 65 180 0.0 0.9 0.00 0.00 0.00 66 1003.0
20260505031521 65 180 0.0 1.7 0.00 0.00 0.00 65 1003.0
20260505031022 66 180 0.9 2.6 0.00 0.00 0.00 63 1002.9
20260505030522 66 180 0.9 2.6 0.00 0.00 0.00 62 1002.9
20260505030021 67 180 0.9 1.7 0.00 0.00 0.00 62 1002.8
20260505025520 69 180 0.9 2.6 0.00 0.00 0.00 62 1002.8
20260505025020 70 180 0.9 2.6 0.00 0.00 0.00 59 1002.9
20260505024019 73 180 0.9 2.6 0.00 0.00 0.00 55 1002.8
20260505023018 76 70 0.9 3.5 0.00 0.00 0.00 53 1002.9
20260505022519 77 83 0.9 1.7 0.00 0.00 0.00 51 1002.7
20260505022018 79 105 0.0 1.7 0.00 0.00 0.00 51 1002.7
20260505021519 80 81 0.0 0.0 0.00 0.00 0.00 43 1002.8
20260505021018 80 81 0.0 0.0 0.00 0.00 0.00 47 1002.8
20260505020520 80 81 0.0 0.0 0.00 0.00 0.00 53 1002.8
20260505020019 80 81 0.0 0.0 0.00 0.00 0.00 52 1002.9
20260505015520 80 81 0.0 0.0 0.00 0.00 0.00 53 1002.9
20260505015018 80 81 0.0 0.0 0.00 0.00 0.00 48 1002.9
20260505014520 80 81 0.0 1.7 0.00 0.00 0.00 42 1002.9
20260505014018 80 81 0.9 1.7 0.00 0.00 0.00 40 1002.9
20260505013517 80 81 0.9 1.7 0.00 0.00 0.00 38 1003.0
20260505013010 80 77 0.0 1.7 0.00 0.00 0.00 36 1003.2
20260505012511 80 74 0.0 1.7 0.00 0.00 0.00 36 1003.2
20260505012011 80 90 0.9 2.6 0.00 0.00 0.00 35 1003.2
20260505011722 80 76 0.9 2.6 0.00 0.00 0.00 35 1003.2
20260505011006 81 79 0.9 2.6 0.00 0.00 0.00 36 1003.3
20260505010505 81 87 0.9 2.6 0.00 0.00 0.00 35 1003.3
20260505010221 81 79 0.9 2.6 0.00 0.00 0.00 37 1003.3
20260505005500 82 58 0.0 2.6 0.00 0.00 0.00 33 1003.4
20260505004959 82 73 0.0 1.7 0.00 0.00 0.00 35 1003.4
20260505004457 83 185 0.0 0.0 0.00 0.00 0.00 30 1003.5
20260505003958 83 185 0.9 2.6 0.00 0.00 0.00 32 1003.5
20260505003456 83 185 0.9 2.6 0.00 0.00 0.00 30 1003.5
20260505002954 83 208 0.0 1.7 0.00 0.00 0.00 34 1003.6
20260505002455 83 208 0.9 1.7 0.00 0.00 0.00 31 1003.6
20260505001954 83 210 0.9 1.7 0.00 0.00 0.00 31 1003.7
20260505001452 83 210 0.9 3.5 0.00 0.00 0.00 33 1003.7
20260505000951 83 220 1.7 3.5 0.00 0.00 0.00 37 1003.7
20260504235951 83 212 1.7 5.2 0.00 0.00 0.00 32 1003.7
20260504235449 82 331 1.7 5.2 0.00 0.00 0.00 31 1003.7
20260504234948 83 348 0.9 5.2 0.00 0.00 0.00 41 1003.7
20260504234450 82 16 0.0 1.7 0.00 0.00 0.00 33 1003.7
20260504233948 83 353 0.9 2.6 0.00 0.00 0.00 38 1003.7
20260504233448 83 353 0.9 2.6 0.00 0.00 0.00 33 1003.7
20260504232948 83 353 0.0 3.5 0.00 0.00 0.00 35 1003.7
20260504232446 83 2 0.0 3.5 0.00 0.00 0.00 37 1003.7
20260504231944 83 87 0.9 1.7 0.00 0.00 0.00 32 1003.8
20260504231445 83 63 1.7 4.3 0.00 0.00 0.00 34 1003.8
20260504230943 83 293 0.9 4.3 0.00 0.00 0.00 31 1003.8
20260504230707 82 31 0.9 2.6 0.00 0.00 0.00 33 1004.0
20260504225944 82 54 0.9 5.2 0.00 0.00 0.00 32 1004.0
20260504225436 83 57 0.9 5.2 0.00 0.00 0.00 29 1004.0
20260504224936 84 86 0.9 3.5 0.00 0.00 0.00 29 1004.1
20260504224443 85 18 0.0 1.7 0.00 0.00 0.00 33 1004.2
20260504223935 85 217 0.9 1.7 0.00 0.00 0.00 31 1004.2
20260504223435 85 207 0.9 2.6 0.00 0.00 0.00 30 1004.2
20260504222935 85 237 1.7 2.6 0.00 0.00 0.00 33 1004.2
20260504222434 85 247 0.9 2.6 0.00 0.00 0.00 32 1004.3
20260504221934 85 204 0.0 1.7 0.00 0.00 0.00 33 1004.3
20260504221434 84 254 0.0 1.7 0.00 0.00 0.00 32 1004.4
20260504220931 84 254 0.9 2.6 0.00 0.00 0.00 31 1004.5
20260504220430 84 266 0.9 2.6 0.00 0.00 0.00 34 1004.5
20260504215932 84 229 0.9 2.6 0.00 0.00 0.00 31 1004.6
20260504215430 83 240 1.7 3.5 0.00 0.00 0.00 35 1004.6
20260504214929 83 212 0.9 3.5 0.00 0.00 0.00 36 1004.6
20260504214429 83 270 0.9 2.6 0.00 0.00 0.00 33 1004.7
20260504213927 83 271 1.7 3.5 0.00 0.00 0.00 39 1004.8
20260504213427 83 259 1.7 3.5 0.00 0.00 0.00 40 1004.9
20260504212926 83 137 1.7 3.5 0.00 0.00 0.00 37 1004.8
20260504212427 83 170 1.7 3.5 0.00 0.00 0.00 35 1004.9
20260504211928 83 108 1.7 3.5 0.00 0.00 0.00 34 1004.9
20260504211422 83 137 1.7 3.5 0.00 0.00 0.00 36 1005.0
20260504210923 83 119 1.7 3.5 0.00 0.00 0.00 38 1005.1
20260504210424 83 241 1.7 3.5 0.00 0.00 0.00 38 1005.2
20260504210143 82 250 1.7 5.2 0.00 0.00 0.00 40 1005.2
20260504205417 82 278 2.6 5.2 0.00 0.00 0.00 41 1005.2
20260504204917 82 226 2.6 5.2 0.00 0.00 0.00 41 1005.3
20260504204410 82 237 1.7 3.5 0.00 0.00 0.00 39 1005.4
20260504204131 81 243 0.9 2.6 0.00 0.00 0.00 40 1005.3
20260504203409 81 14 1.7 6.1 0.00 0.00 0.00 40 1005.4
20260504202909 81 268 2.6 6.1 0.00 0.00 0.00 37 1005.5
20260504202412 81 285 2.6 6.1 0.00 0.00 0.00 39 1005.5
20260504202127 80 281 2.6 5.2 0.00 0.00 0.00 39 1005.5
20260504201407 80 209 2.6 7.0 0.00 0.00 0.00 41 1005.5
20260504200905 80 341 2.6 7.0 0.00 0.00 0.00 42 1005.5
20260504200406 80 279 2.6 7.0 0.00 0.00 0.00 41 1005.5
20260504195905 80 284 3.5 7.8 0.00 0.00 0.00 40 1005.7
20260504195405 80 318 3.5 7.8 0.00 0.00 0.00 43 1005.7
20260504194905 80 306 1.7 7.0 0.00 0.00 0.00 40 1005.7
20260504194404 80 254 1.7 6.1 0.00 0.00 0.00 40 1005.7
20260504193905 80 218 2.6 7.0 0.00 0.00 0.00 40 1005.7
20260504193405 80 233 3.5 7.0 0.00 0.00 0.00 43 1005.7
20260504192905 80 203 3.5 7.0 0.00 0.00 0.00 41 1005.7
20260504192403 80 274 3.5 7.0 0.00 0.00 0.00 43 1005.7
20260504191905 79 264 3.5 7.8 0.00 0.00 0.00 44 1005.8
20260504191405 79 197 3.5 7.8 0.00 0.00 0.00 43 1005.8
20260504190905 79 180 2.6 6.1 0.00 0.00 0.00 44 1005.8
20260504190405 79 265 3.5 7.8 0.00 0.00 0.00 45 1005.9
20260504190133 79 235 4.3 7.8 0.00 0.00 0.00 44 1005.8
20260504185359 79 243 3.5 7.8 0.00 0.00 0.00 42 1005.9
20260504184858 79 224 2.6 6.1 0.00 0.00 0.00 41 1005.9
20260504184357 78 269 2.6 7.8 0.00 0.00 0.00 43 1005.9
20260504183857 78 224 3.5 7.8 0.00 0.00 0.00 43 1006.0
20260504183352 77 244 3.5 7.0 0.00 0.00 0.00 40 1006.0
20260504182851 77 263 3.5 7.0 0.00 0.00 0.00 44 1006.0
20260504182351 76 287 3.5 7.0 0.00 0.00 0.00 41 1006.0
20260504181846 76 249 4.3 8.7 0.00 0.00 0.00 42 1006.1
20260504181614 76 274 5.2 8.7 0.00 0.00 0.00 45 1006.0
20260504180847 75 275 5.2 8.7 0.00 0.00 0.00 43 1006.1
20260504180337 75 291 5.2 7.8 0.00 0.00 0.00 45 1006.1
20260504175839 75 306 6.1 9.6 0.00 0.00 0.00 44 1006.1
20260504175338 75 286 5.2 9.6 0.00 0.00 0.00 46 1006.1
20260504174837 75 295 5.2 8.7 0.00 0.00 0.00 48 1006.1
20260504174337 74 291 4.3 8.7 0.00 0.00 0.00 47 1006.1
20260504174102 74 274 4.3 8.7 0.00 0.00 0.00 48 1006.1
20260504173330 74 271 5.2 8.7 0.00 0.00 0.00 47 1006.1
20260504172827 74 309 5.2 7.8 0.00 0.00 0.00 49 1006.0
20260504172328 74 300 5.2 8.7 0.00 0.00 0.00 47 1006.0
20260504172044 74 281 5.2 8.7 0.00 0.00 0.00 45 1006.0
20260504171323 74 272 5.2 8.7 0.00 0.00 0.00 46 1006.0
20260504171043 74 295 4.3 8.7 0.00 0.00 0.00 48 1006.0
20260504170319 74 299 3.5 7.0 0.00 0.00 0.00 48 1006.0
20260504160311 71 241 1.7 3.5 0.00 0.00 0.00 51 1006.0